M I D A S
Marine Information and Data Acquisition System
Tripno 1818 of the Zeeleeuw from 2009-09-29 06:51:08 to 2009-09-29 16:20:53
Back to CruiseResearch ActivitiesStationsMapUnderway DataData graphs

EquipmentUnitsComments
TimeDGPSUTC
LatitudeDGPSDM.mWGS84
LongitudeDGPSDM.mWGS84
SpeedMeteo Stationm/sRelative wind speed
DirectionMeteo StationdegRelative wind direction
TemperatureMeteo Stationdeg CelciusAir temperature
PressureMeteo StationPaAtmospheric pressure
HumidityMeteo Station%Relative humidity
Missing or incorrect values are displayed as -999
Metereological data collected by the RV Zeeleeuw from 2009-09-29 07:01:30 to 2009-09-29 16:25:40
                                                                                    Next 1000 lines
Time Latitude Longitude Speed Direction Temperature Pressure Humidity
2009-09-29 07:01:40 51°13.662 2°55.957 5.1 32 16 102120 39
2009-09-29 07:01:44 51°13.662 2°55.956 5.6 82 16 102120 46
2009-09-29 07:01:50 51°13.662 2°55.954 4.7 37 16 102120 46
2009-09-29 07:01:55 51°13.663 2°55.951 5.5 77 16 102120 46
2009-09-29 07:02:00 51°13.664 2°55.948 4.7 36 16 102120 46
2009-09-29 07:02:04 51°13.665 2°55.945 5 22 16 102120 42
2009-09-29 07:02:10 51°13.666 2°55.941 3.8 32 16 102120 42
2009-09-29 07:02:16 51°13.668 2°55.935 5.8 78 16 102120 42
2009-09-29 07:02:21 51°13.67 2°55.931 6.5 39 16 102120 42
2009-09-29 07:02:27 51°13.671 2°55.925 5.6 82 16 102110 44
2009-09-29 07:02:32 51°13.673 2°55.92 5.3 39 16 102110 44
2009-09-29 07:02:38 51°13.675 2°55.913 4.3 82 16 102120 40
2009-09-29 07:02:43 51°13.676 2°55.908 3.6 34 16 102120 40
2009-09-29 07:02:48 51°13.678 2°55.902 3.7 75 16 102120 46
2009-09-29 07:02:53 51°13.679 2°55.896 4.9 36 16 102120 46
2009-09-29 07:02:58 51°13.681 2°55.89 3.9 82 16 102120 41
2009-09-29 07:03:03 51°13.682 2°55.884 4.6 39 16 102120 41
2009-09-29 07:03:08 51°13.684 2°55.877 4.5 78 16 102120 45
2009-09-29 07:03:13 51°13.685 2°55.871 4.5 35 16 102120 45
2009-09-29 07:03:18 51°13.687 2°55.864 2.6 75 16 102120 44
2009-09-29 07:03:23 51°13.688 2°55.858 3.6 34 16 102120 44
2009-09-29 07:03:28 51°13.689 2°55.851 4.1 82 16 102120 46
2009-09-29 07:03:33 51°13.691 2°55.845 4.3 33 16 102120 46
2009-09-29 07:03:38 51°13.692 2°55.838 4.3 82 16 102120 44
2009-09-29 07:03:43 51°13.693 2°55.832 3 39 16 102120 44
2009-09-29 07:03:48 51°13.694 2°55.825 4.7 78 16.1 102120 40
2009-09-29 07:03:53 51°13.695 2°55.819 3.9 31 16.1 102120 40
2009-09-29 07:03:58 51°13.696 2°55.813 3.5 83 16.1 102120 45
2009-09-29 07:04:03 51°13.696 2°55.806 4.2 37 16.1 102120 45
2009-09-29 07:04:08 51°13.697 2°55.801 4.1 27 16.1 102120 46
2009-09-29 07:04:13 51°13.697 2°55.795 4.5 39 16.1 102120 46
2009-09-29 07:04:18 51°13.698 2°55.79 3.8 78 16.1 102120 42
2009-09-29 07:04:23 51°13.698 2°55.785 2.2 34 16.1 102120 42
2009-09-29 07:04:28 51°13.699 2°55.781 3.5 76 16.1 102120 45
2009-09-29 07:04:33 51°13.699 2°55.779 2.9 39 16.1 102120 45
2009-09-29 07:04:38 51°13.699 2°55.777 4.4 86 16 102120 45
2009-09-29 07:04:43 51°13.699 2°55.777 2.7 270 16 102120 45
2009-09-29 07:04:48 51°13.7 2°55.778 4.1 278 16 102120 41
2009-09-29 07:04:52 51°13.701 2°55.779 4.7 258 16 102120 41
2009-09-29 07:04:57 51°13.702 2°55.782 3 285 16 102120 41
2009-09-29 07:05:02 51°13.703 2°55.784 2.3 261 16 102120 41
2009-09-29 07:05:07 51°13.704 2°55.786 2.4 262 16 102120 45
2009-09-29 07:05:12 51°13.705 2°55.788 3.2 331 16 102120 45
2009-09-29 07:05:16 51°13.706 2°55.789 3.1 75 16 102120 43
2009-09-29 07:05:21 51°13.706 2°55.79 2 267 16 102120 43
2009-09-29 07:05:26 51°13.706 2°55.79 3.8 280 16 102120 45
2009-09-29 07:05:31 51°13.706 2°55.79 4.5 249 16 102120 45
2009-09-29 07:05:36 51°13.705 2°55.789 4.1 281 16 102120 39
2009-09-29 07:05:41 51°13.704 2°55.788 3.1 262 16 102120 39
2009-09-29 07:05:46 51°13.703 2°55.786 2 285 16 102120 46
2009-09-29 07:05:51 51°13.701 2°55.785 2.1 263 16 102120 46
2009-09-29 07:05:55 51°13.7 2°55.784 3.3 283 16 102120 40
2009-09-29 07:06:01 51°13.699 2°55.783 2.9 251 16 102120 40
2009-09-29 07:06:07 51°13.697 2°55.782 3.7 253 16 102120 39
2009-09-29 07:06:12 51°13.697 2°55.781 3.1 251 16 102120 39
2009-09-29 07:06:18 51°13.697 2°55.782 3.2 282 16 102120 46
2009-09-29 07:06:23 51°13.698 2°55.782 3.2 247 16 102120 46
2009-09-29 07:06:28 51°13.7 2°55.783 3.5 283 16 102120 41
2009-09-29 07:06:33 51°13.703 2°55.784 4.1 248 16 102120 41
2009-09-29 07:06:38 51°13.706 2°55.785 3.4 279 16 102120 40
2009-09-29 07:06:43 51°13.708 2°55.786 4.7 316 16 102120 40
2009-09-29 07:06:47 51°13.71 2°55.786 3.7 285 16 102120 46
2009-09-29 07:06:52 51°13.712 2°55.786 5.2 241 16 102120 46
2009-09-29 07:06:57 51°13.713 2°55.786 4.6 280 16 102120 44
2009-09-29 07:07:02 51°13.714 2°55.787 3.8 33 16 102120 44
2009-09-29 07:07:07 51°13.714 2°55.788 3.8 284 16 102110 45
2009-09-29 07:07:12 51°13.713 2°55.789 4.4 33 16 102110 45
2009-09-29 07:07:16 51°13.712 2°55.79 4.9 280 16 102120 46
2009-09-29 07:07:21 51°13.711 2°55.791 4 323 16 102120 46
2009-09-29 07:07:26 51°13.711 2°55.791 4.1 279 16 102120 42
2009-09-29 07:07:31 51°13.712 2°55.791 3.6 332 16 102120 42
2009-09-29 07:07:36 51°13.714 2°55.79 4.2 278 16 102110 41
2009-09-29 07:07:40 51°13.716 2°55.788 4.4 324 16 102110 41
2009-09-29 07:07:46 51°13.719 2°55.785 3.7 284 16 102120 41
2009-09-29 07:07:51 51°13.722 2°55.782 6.2 328 16 102120 41
2009-09-29 07:07:55 51°13.725 2°55.778 5.3 283 16 102110 39
2009-09-29 07:08:00 51°13.728 2°55.773 6.8 329 16 102110 39
2009-09-29 07:08:05 51°13.73 2°55.769 7 321 16 102110 46
2009-09-29 07:08:10 51°13.733 2°55.764 4.6 333 16 102110 46
2009-09-29 07:08:15 51°13.735 2°55.76 4 284 16 102110 41
2009-09-29 07:08:19 51°13.738 2°55.756 4.8 330 16 102110 41
2009-09-29 07:08:24 51°13.741 2°55.75 5.4 286 16 102110 45
2009-09-29 07:08:30 51°13.745 2°55.743 6.2 318 16 102110 45
2009-09-29 07:08:35 51°13.748 2°55.736 4.3 279 16 102110 46
2009-09-29 07:08:39 51°13.751 2°55.73 5.7 330 16 102110 46
2009-09-29 07:08:44 51°13.754 2°55.723 6.5 285 16 102110 40
2009-09-29 07:08:49 51°13.758 2°55.716 7.9 320 16 102110 40
2009-09-29 07:08:55 51°13.763 2°55.708 7.3 279 15.9 102110 43
2009-09-29 07:09:00 51°13.768 2°55.701 6.6 326 15.9 102110 43
2009-09-29 07:09:04 51°13.772 2°55.695 6.4 321 15.9 102110 44
2009-09-29 07:09:09 51°13.777 2°55.689 7.1 321 15.9 102110 44
2009-09-29 07:09:15 51°13.783 2°55.681 5.7 279 15.9 102110 43
2009-09-29 07:09:20 51°13.789 2°55.675 5 321 15.9 102110 43
2009-09-29 07:09:24 51°13.793 2°55.67 5.3 283 15.9 102110 40
2009-09-29 07:09:29 51°13.799 2°55.664 4.9 321 15.9 102110 40
2009-09-29 07:09:35 51°13.806 2°55.658 5.7 279 15.9 102110 45
2009-09-29 07:09:40 51°13.813 2°55.652 5.2 326 15.9 102110 45
2009-09-29 07:09:44 51°13.818 2°55.647 5.8 280 15.9 102110 45
2009-09-29 07:09:49 51°13.824 2°55.642 5.2 32 15.9 102110 45
2009-09-29 07:09:55 51°13.832 2°55.635 5 284 15.9 102110 44
2009-09-29 07:09:59 51°13.837 2°55.631 4.9 328 15.9 102110 44
2009-09-29 07:10:04 51°13.844 2°55.626 6.1 280 15.9 102110 40
2009-09-29 07:10:09 51°13.851 2°55.621 7.9 34 15.9 102110 40
2009-09-29 07:10:15 51°13.859 2°55.615 6.5 280 15.9 102110 40
2009-09-29 07:10:19 51°13.865 2°55.611 6 316 15.9 102110 40
2009-09-29 07:10:24 51°13.872 2°55.605 6.9 277 15.9 102120 44
2009-09-29 07:10:29 51°13.878 2°55.6 7 316 15.9 102120 44
2009-09-29 07:10:35 51°13.887 2°55.593 6.2 279 15.9 102110 44
2009-09-29 07:10:40 51°13.893 2°55.588 6 34 15.9 102110 44
2009-09-29 07:10:44 51°13.899 2°55.584 5.8 279 15.9 102110 46
2009-09-29 07:10:50 51°13.907 2°55.578 4.8 317 15.9 102110 46
2009-09-29 07:10:55 51°13.914 2°55.572 6.1 277 15.9 102110 44
2009-09-29 07:11:00 51°13.921 2°55.567 5.2 321 15.9 102110 44
2009-09-29 07:11:04 51°13.927 2°55.563 6 317 15.9 102110 45
2009-09-29 07:11:09 51°13.934 2°55.557 5.9 327 15.9 102110 45
2009-09-29 07:11:15 51°13.942 2°55.551 4.7 283 15.9 102110 46
2009-09-29 07:11:20 51°13.95 2°55.546 5.2 324 15.9 102110 46
2009-09-29 07:11:24 51°13.955 2°55.541 5.6 283 15.9 102110 40
2009-09-29 07:11:29 51°13.962 2°55.536 6.7 319 15.9 102110 40
2009-09-29 07:11:35 51°13.972 2°55.53 6.8 284 15.9 102110 40
2009-09-29 07:11:40 51°13.979 2°55.525 6.3 316 15.9 102110 40
2009-09-29 07:11:44 51°13.985 2°55.521 4.9 284 15.9 102110 46
2009-09-29 07:11:49 51°13.992 2°55.516 5.4 321 15.9 102110 46
2009-09-29 07:11:55 51°14.001 2°55.51 6.4 284 15.9 102110 44
2009-09-29 07:11:59 51°14.007 2°55.505 5.7 324 15.9 102110 44
2009-09-29 07:12:04 51°14.014 2°55.5 6 277 15.9 102110 40
2009-09-29 07:12:09 51°14.021 2°55.495 4.8 317 15.9 102110 40
2009-09-29 07:12:14 51°14.029 2°55.49 5.1 285 15.9 102110 45
2009-09-29 07:12:19 51°14.036 2°55.485 4.9 31 15.9 102110 45
2009-09-29 07:12:25 51°14.045 2°55.479 6.3 278 15.9 102110 41
2009-09-29 07:12:30 51°14.052 2°55.474 6.1 322 15.9 102110 41
2009-09-29 07:12:35 51°14.059 2°55.468 6.9 277 15.9 102110 46
2009-09-29 07:12:40 51°14.066 2°55.463 5.6 39 15.9 102110 46
2009-09-29 07:12:44 51°14.072 2°55.458 7.2 279 15.9 102110 46
2009-09-29 07:12:50 51°14.08 2°55.452 7.4 39 15.9 102110 46
2009-09-29 07:12:54 51°14.085 2°55.447 7.1 283 15.9 102110 44
2009-09-29 07:13:00 51°14.094 2°55.44 6.7 33 15.9 102110 44
2009-09-29 07:13:05 51°14.101 2°55.435 7.9 23 15.9 102110 46
2009-09-29 07:13:10 51°14.108 2°55.43 9.2 36 15.9 102110 46
2009-09-29 07:13:14 51°14.113 2°55.425 7.5 286 15.9 102110 45
2009-09-29 07:13:20 51°14.121 2°55.418 8.4 316 15.9 102110 45
2009-09-29 07:13:24 51°14.127 2°55.414 8.2 279 15.9 102110 43
2009-09-29 07:13:29 51°14.134 2°55.407 7.1 315 15.9 102110 43
2009-09-29 07:13:35 51°14.142 2°55.4 8.4 278 15.9 102110 40
2009-09-29 07:13:40 51°14.149 2°55.394 9.2 317 15.9 102110 40
2009-09-29 07:13:44 51°14.155 2°55.388 8.8 283 15.9 102110 41
2009-09-29 07:13:49 51°14.163 2°55.38 9.4 316 15.9 102110 41
2009-09-29 07:13:54 51°14.17 2°55.372 8.5 277 15.9 102100 45
2009-09-29 07:14:00 51°14.179 2°55.361 7.8 320 15.9 102100 45
2009-09-29 07:14:05 51°14.186 2°55.352 7.9 318 15.9 102110 41
2009-09-29 07:14:09 51°14.192 2°55.344 6.8 318 15.9 102110 41
2009-09-29 07:14:14 51°14.2 2°55.335 10.3 281 15.9 102100 41
2009-09-29 07:14:20 51°14.209 2°55.323 8.9 319 15.9 102100 41
2009-09-29 07:14:25 51°14.217 2°55.312 8.9 277 15.9 102110 41
2009-09-29 07:14:29 51°14.223 2°55.304 8.7 320 15.9 102110 41
2009-09-29 07:14:34 51°14.23 2°55.293 10.3 279 15.9 102110 43
2009-09-29 07:14:40 51°14.239 2°55.279 9 321 15.9 102110 43
2009-09-29 07:14:45 51°14.246 2°55.267 9.4 283 15.9 102100 44
2009-09-29 07:14:50 51°14.253 2°55.256 9.4 320 15.9 102100 44
2009-09-29 07:14:54 51°14.259 2°55.246 9.5 278 15.9 102110 44
2009-09-29 07:15:00 51°14.267 2°55.232 8.7 320 15.9 102110 44
2009-09-29 07:15:04 51°14.273 2°55.222 8.1 320 15.9 102100 41
2009-09-29 07:15:09 51°14.28 2°55.21 9.8 316 15.9 102100 41
2009-09-29 07:15:15 51°14.289 2°55.195 8.5 282 15.9 102100 44
2009-09-29 07:15:20 51°14.296 2°55.183 9.5 323 15.9 102100 44
2009-09-29 07:15:24 51°14.301 2°55.172 9.4 282 15.9 102100 44
2009-09-29 07:15:30 51°14.31 2°55.157 9.5 318 15.9 102100 44
2009-09-29 07:15:34 51°14.316 2°55.146 10.3 283 15.9 102110 45
2009-09-29 07:15:40 51°14.325 2°55.131 11.5 318 15.9 102110 45
2009-09-29 07:15:45 51°14.333 2°55.118 11.7 278 15.9 102110 44
2009-09-29 07:15:49 51°14.339 2°55.107 12.1 319 15.9 102110 44
2009-09-29 07:15:54 51°14.347 2°55.094 11.1 282 15.9 102100 45
2009-09-29 07:16:00 51°14.356 2°55.078 8.8 317 15.9 102100 45
2009-09-29 07:16:04 51°14.363 2°55.068 10.3 316 15.9 102090 45
2009-09-29 07:16:09 51°14.372 2°55.056 10.7 315 15.9 102090 45
2009-09-29 07:16:14 51°14.382 2°55.046 9.7 278 15.9 102090 44
2009-09-29 07:16:20 51°14.394 2°55.034 9.8 317 15.9 102090 44
2009-09-29 07:16:25 51°14.404 2°55.025 8.9 278 15.9 102090 44
2009-09-29 07:16:29 51°14.413 2°55.018 9 38 15.9 102090 44
2009-09-29 07:16:34 51°14.423 2°55.008 11 284 15.9 102090 43
2009-09-29 07:16:40 51°14.436 2°54.997 9 38 15.9 102090 43
2009-09-29 07:16:45 51°14.447 2°54.988 9 281 15.9 102090 41
2009-09-29 07:16:49 51°14.455 2°54.98 10.4 317 15.9 102090 41
2009-09-29 07:16:54 51°14.466 2°54.971 10.3 281 15.8 102100 44
2009-09-29 07:17:00 51°14.479 2°54.959 10.4 318 15.8 102100 44
2009-09-29 07:17:05 51°14.49 2°54.949 11.2 317 15.9 102100 41
2009-09-29 07:17:09 51°14.499 2°54.941 11.9 317 15.9 102100 41
2009-09-29 07:17:15 51°14.513 2°54.929 11.4 283 15.9 102090 43
2009-09-29 07:17:20 51°14.525 2°54.919 9.6 319 15.9 102090 43
2009-09-29 07:17:24 51°14.534 2°54.912 11.2 280 15.9 102090 44
2009-09-29 07:17:30 51°14.548 2°54.899 10.4 321 15.9 102090 44
2009-09-29 07:17:34 51°14.558 2°54.891 9.9 280 15.9 102100 44
2009-09-29 07:17:40 51°14.571 2°54.878 11.2 320 15.9 102100 44
2009-09-29 07:17:44 51°14.581 2°54.869 11.5 285 15.9 102090 42
2009-09-29 07:17:49 51°14.593 2°54.858 9.6 317 15.9 102090 42
2009-09-29 07:17:55 51°14.607 2°54.845 10.8 281 15.9 102100 43
2009-09-29 07:18:00 51°14.62 2°54.835 11.7 318 15.9 102100 43
2009-09-29 07:18:04 51°14.63 2°54.826 12.3 318 15.9 102080 42
2009-09-29 07:18:09 51°14.642 2°54.814 10.7 319 15.9 102080 42
2009-09-29 07:18:14 51°14.654 2°54.803 11.1 281 16 102100 43
2009-09-29 07:18:20 51°14.67 2°54.79 11.4 319 16 102100 43
2009-09-29 07:18:24 51°14.68 2°54.782 11 282 15.9 102070 44
2009-09-29 07:18:29 51°14.693 2°54.77 11.5 319 15.9 102070 44
2009-09-29 07:18:34 51°14.705 2°54.759 12.6 282 15.9 102090 44
2009-09-29 07:18:40 51°14.721 2°54.746 10.9 319 15.9 102090 44
2009-09-29 07:18:45 51°14.734 2°54.735 10.8 281 15.9 102070 44
2009-09-29 07:18:49 51°14.744 2°54.726 10.1 320 15.9 102070 44
2009-09-29 07:18:54 51°14.757 2°54.715 11 283 15.9 102090 42
2009-09-29 07:19:00 51°14.773 2°54.702 11.1 321 15.9 102090 42
2009-09-29 07:19:05 51°14.787 2°54.691 11.4 320 15.9 102080 45
2009-09-29 07:19:09 51°14.798 2°54.682 12.6 320 15.9 102080 45
2009-09-29 07:19:14 51°14.811 2°54.671 11.8 279 15.9 102080 44
2009-09-29 07:19:20 51°14.827 2°54.657 10.9 322 15.9 102080 44
2009-09-29 07:19:24 51°14.837 2°54.647 12.8 283 15.9 102080 42
2009-09-29 07:19:29 51°14.85 2°54.636 11.2 319 15.9 102080 42
2009-09-29 07:19:34 51°14.864 2°54.624 12 286 15.9 102080 42
2009-09-29 07:19:40 51°14.879 2°54.611 10.5 320 15.9 102080 42
2009-09-29 07:19:44 51°14.89 2°54.601 11.5 277 15.9 102090 44
2009-09-29 07:19:50 51°14.905 2°54.587 11.4 319 15.9 102090 44
2009-09-29 07:19:54 51°14.916 2°54.578 12.7 286 15.9 102070 44
2009-09-29 07:20:00 51°14.931 2°54.564 12.8 319 15.9 102070 44
2009-09-29 07:20:04 51°14.942 2°54.555 11.3 319 15.9 102070 43
2009-09-29 07:20:09 51°14.955 2°54.543 12.1 320 15.9 102070 43
2009-09-29 07:20:15 51°14.97 2°54.528 10 278 15.9 102070 43
2009-09-29 07:20:20 51°14.983 2°54.515 13.1 320 15.9 102070 43
2009-09-29 07:20:24 51°14.994 2°54.506 13.6 278 15.9 102090 42
2009-09-29 07:20:29 51°15.007 2°54.495 11.7 319 15.9 102090 42
2009-09-29 07:20:35 51°15.023 2°54.481 11 277 15.9 102080 45
2009-09-29 07:20:40 51°15.036 2°54.469 13.1 319 15.9 102080 45
2009-09-29 07:20:45 51°15.049 2°54.458 13.2 285 15.9 102070 43
2009-09-29 07:20:49 51°15.06 2°54.448 10.6 319 15.9 102070 43
2009-09-29 07:20:54 51°15.073 2°54.436 10.6 281 15.9 102080 43
2009-09-29 07:21:00 51°15.088 2°54.422 10.7 318 15.9 102080 43
2009-09-29 07:21:05 51°15.102 2°54.41 12.2 321 15.9 102080 42
2009-09-29 07:21:09 51°15.112 2°54.401 10.8 319 15.9 102080 42
2009-09-29 07:21:14 51°15.126 2°54.389 11.9 282 15.9 102090 45
2009-09-29 07:21:20 51°15.141 2°54.376 12.5 321 15.9 102090 45
2009-09-29 07:21:25 51°15.155 2°54.364 12.7 281 15.9 102080 45
2009-09-29 07:21:29 51°15.165 2°54.354 12.1 322 15.9 102080 45
2009-09-29 07:21:34 51°15.178 2°54.343 11.5 280 15.9 102080 42
2009-09-29 07:21:40 51°15.194 2°54.329 11.4 320 15.9 102080 42
2009-09-29 07:21:44 51°15.205 2°54.32 11.4 277 15.9 102080 42
2009-09-29 07:21:49 51°15.218 2°54.309 11.8 320 15.9 102080 42
2009-09-29 07:21:55 51°15.234 2°54.295 11.1 281 15.9 102090 42
2009-09-29 07:22:00 51°15.247 2°54.283 11.2 323 15.9 102090 42
2009-09-29 07:22:05 51°15.26 2°54.271 10.8 322 15.9 102090 43
2009-09-29 07:22:09 51°15.27 2°54.262 11.9 322 15.9 102090 43
2009-09-29 07:22:14 51°15.283 2°54.25 12.2 282 15.9 102080 44
2009-09-29 07:22:20 51°15.299 2°54.236 12 321 15.9 102080 44
2009-09-29 07:22:25 51°15.312 2°54.224 12.1 285 15.9 102070 42
2009-09-29 07:22:29 51°15.322 2°54.214 12.1 321 15.9 102070 42
2009-09-29 07:22:34 51°15.335 2°54.202 11.3 279 15.9 102090 43
2009-09-29 07:22:40 51°15.35 2°54.189 11.8 322 15.9 102090 43
2009-09-29 07:22:44 51°15.361 2°54.179 12.9 281 15.9 102080 44
2009-09-29 07:22:49 51°15.374 2°54.168 13.4 321 15.9 102080 44
2009-09-29 07:22:54 51°15.387 2°54.156 13.2 281 15.9 102080 41
2009-09-29 07:23:00 51°15.402 2°54.143 11.3 320 15.9 102080 41
2009-09-29 07:23:05 51°15.415 2°54.131 12.6 319 15.9 102090 43
2009-09-29 07:23:09 51°15.426 2°54.122 13.6 319 15.9 102090 43
2009-09-29 07:23:14 51°15.438 2°54.11 12.3 285 15.9 102090 44
2009-09-29 07:23:20 51°15.454 2°54.096 12.3 321 15.9 102090 44
2009-09-29 07:23:25 51°15.467 2°54.085 11.8 283 15.8 102100 43
2009-09-29 07:23:29 51°15.477 2°54.075 12.7 322 15.8 102100 43
2009-09-29 07:23:34 51°15.49 2°54.064 12.8 282 15.8 102080 44
2009-09-29 07:23:40 51°15.506 2°54.05 10.3 322 15.8 102080 44
2009-09-29 07:23:45 51°15.519 2°54.038 11.7 277 15.9 102080 42
2009-09-29 07:23:49 51°15.53 2°54.029 11 321 15.9 102080 42
2009-09-29 07:23:54 51°15.543 2°54.018 11.6 284 15.9 102100 45
2009-09-29 07:24:00 51°15.558 2°54.003 12.9 324 15.9 102100 45
2009-09-29 07:24:04 51°15.568 2°53.994 11.5 321 15.9 102080 44
2009-09-29 07:24:09 51°15.581 2°53.982 10.9 321 15.9 102080 44
2009-09-29 07:24:14 51°15.594 2°53.971 12.2 281 15.9 102070 42
2009-09-29 07:24:20 51°15.61 2°53.957 11.9 323 15.9 102070 42
2009-09-29 07:24:24 51°15.62 2°53.948 13 282 15.9 102110 45
2009-09-29 07:24:29 51°15.633 2°53.936 12.1 320 15.9 102110 45
2009-09-29 07:24:35 51°15.648 2°53.922 12.1 278 15.9 102090 42
2009-09-29 07:24:40 51°15.661 2°53.911 11.8 322 15.9 102090 42
2009-09-29 07:24:44 51°15.671 2°53.901 12.4 280 15.9 102100 43
2009-09-29 07:24:49 51°15.684 2°53.89 10.5 321 15.9 102100 43
2009-09-29 07:24:54 51°15.697 2°53.878 13 281 15.9 102100 45
2009-09-29 07:25:00 51°15.713 2°53.864 10.5 321 15.9 102100 45
2009-09-29 07:25:05 51°15.726 2°53.852 11.4 321 15.9 102080 44
2009-09-29 07:25:09 51°15.736 2°53.843 13.4 323 15.9 102080 44
2009-09-29 07:25:14 51°15.749 2°53.831 11.4 279 15.9 102100 45
2009-09-29 07:25:20 51°15.764 2°53.817 10.5 323 15.9 102100 45
2009-09-29 07:25:24 51°15.775 2°53.808 11.7 279 15.9 102090 42
2009-09-29 07:25:29 51°15.788 2°53.797 12.2 323 15.9 102090 42
2009-09-29 07:25:34 51°15.801 2°53.785 10.9 284 15.9 102110 44
2009-09-29 07:25:40 51°15.816 2°53.772 10.6 325 15.9 102110 44
2009-09-29 07:25:45 51°15.829 2°53.76 12.8 286 15.9 102110 45
2009-09-29 07:25:49 51°15.839 2°53.751 12.3 325 15.9 102110 45
2009-09-29 07:25:54 51°15.852 2°53.739 11.9 281 15.9 102100 42
2009-09-29 07:26:00 51°15.868 2°53.724 12.7 322 15.9 102100 42
2009-09-29 07:26:05 51°15.881 2°53.712 11.4 323 15.9 102100 43
2009-09-29 07:26:09 51°15.891 2°53.703 11.2 322 15.9 102100 43
2009-09-29 07:26:14 51°15.904 2°53.69 11.4 284 15.9 102100 43
2009-09-29 07:26:20 51°15.919 2°53.676 11.2 322 15.9 102100 43
2009-09-29 07:26:24 51°15.93 2°53.667 11.9 280 15.9 102100 42
2009-09-29 07:26:29 51°15.943 2°53.655 12.3 323 15.9 102100 42
2009-09-29 07:26:35 51°15.958 2°53.641 13 281 15.9 102080 42
2009-09-29 07:26:40 51°15.971 2°53.629 11.1 323 15.9 102080 42
2009-09-29 07:26:44 51°15.981 2°53.62 12.8 286 15.9 102080 45
2009-09-29 07:26:49 51°15.994 2°53.608 11.6 321 15.9 102080 45
2009-09-29 07:26:54 51°16.007 2°53.596 12.6 282 15.9 102090 44
2009-09-29 07:27:00 51°16.022 2°53.582 12.1 323 15.9 102090 44
2009-09-29 07:27:05 51°16.035 2°53.571 9.4 324 15.9 102080 43
2009-09-29 07:27:09 51°16.045 2°53.562 10.7 322 15.9 102080 43
2009-09-29 07:27:15 51°16.06 2°53.548 12.7 280 15.9 102100 42
2009-09-29 07:27:20 51°16.073 2°53.537 13 322 15.9 102100 42
2009-09-29 07:27:25 51°16.086 2°53.525 11.6 281 15.9 102090 42
2009-09-29 07:27:29 51°16.096 2°53.516 10.9 321 15.9 102090 42
2009-09-29 07:27:34 51°16.109 2°53.504 13.2 283 15.9 102110 43
2009-09-29 07:27:40 51°16.124 2°53.49 12.7 322 15.9 102110 43
2009-09-29 07:27:44 51°16.134 2°53.481 12.4 281 15.9 102090 44
2009-09-29 07:27:50 51°16.149 2°53.467 11.2 323 15.9 102090 44
2009-09-29 07:27:54 51°16.159 2°53.457 12.6 285 15.9 102090 44
2009-09-29 07:28:00 51°16.175 2°53.443 12.7 323 15.9 102090 44
2009-09-29 07:28:05 51°16.188 2°53.432 11.9 322 15.9 102100 45
2009-09-29 07:28:09 51°16.198 2°53.422 10.5 323 15.9 102100 45
2009-09-29 07:28:14 51°16.211 2°53.409 11.6 277 15.9 102090 44
2009-09-29 07:28:20 51°16.227 2°53.395 12.4 322 15.9 102090 44
2009-09-29 07:28:25 51°16.24 2°53.384 10.6 280 15.9 102090 45
2009-09-29 07:28:29 51°16.25 2°53.375 10.9 319 15.9 102090 45
2009-09-29 07:28:34 51°16.263 2°53.363 12.2 281 15.9 102090 43
2009-09-29 07:28:40 51°16.279 2°53.349 12.5 322 15.9 102090 43
2009-09-29 07:28:44 51°16.289 2°53.34 10.7 280 15.9 102100 44
2009-09-29 07:28:50 51°16.305 2°53.326 11.8 323 15.9 102100 44
2009-09-29 07:28:54 51°16.315 2°53.317 11.3 280 15.9 102090 42
2009-09-29 07:29:00 51°16.331 2°53.303 11 324 15.9 102090 42
2009-09-29 07:29:04 51°16.342 2°53.294 12.1 324 15.9 102100 45
2009-09-29 07:29:09 51°16.355 2°53.282 13.2 321 15.9 102100 45
2009-09-29 07:29:15 51°16.371 2°53.268 11.8 282 15.9 102100 45
2009-09-29 07:29:20 51°16.384 2°53.256 11.9 321 15.9 102100 45
2009-09-29 07:29:24 51°16.395 2°53.248 12.9 286 15.9 102100 43
2009-09-29 07:29:29 51°16.408 2°53.238 13.2 321 15.9 102100 43
2009-09-29 07:29:35 51°16.424 2°53.225 10.9 286 15.9 102100 45
2009-09-29 07:29:40 51°16.437 2°53.214 11.1 321 15.9 102100 45
2009-09-29 07:29:45 51°16.451 2°53.204 10.1 284 15.9 102090 44
2009-09-29 07:29:49 51°16.462 2°53.196 12.5 321 15.9 102090 44
2009-09-29 07:29:54 51°16.475 2°53.187 13.1 278 15.9 102090 42
2009-09-29 07:30:00 51°16.491 2°53.175 11.7 320 15.9 102090 42
2009-09-29 07:30:05 51°16.505 2°53.165 10.7 321 15.9 102100 43
2009-09-29 07:30:09 51°16.516 2°53.158 12.3 320 15.9 102100 43
2009-09-29 07:30:14 51°16.529 2°53.148 11.8 285 15.9 102100 45
2009-09-29 07:30:20 51°16.545 2°53.137 12.8 319 15.9 102100 45
2009-09-29 07:30:25 51°16.559 2°53.128 11.2 277 15.9 102100 44
2009-09-29 07:30:29 51°16.569 2°53.121 11.3 317 15.9 102100 44
2009-09-29 07:30:34 51°16.583 2°53.112 11.5 281 15.9 102110 44
2009-09-29 07:30:40 51°16.599 2°53.1 11.2 317 15.9 102110 44
2009-09-29 07:30:44 51°16.609 2°53.092 13.2 282 15.9 102100 42
2009-09-29 07:30:49 51°16.623 2°53.083 11.4 319 15.9 102100 42
2009-09-29 07:30:55 51°16.639 2°53.072 11.1 277 15.9 102120 44
2009-09-29 07:31:00 51°16.653 2°53.063 9.9 320 15.9 102120 44
2009-09-29 07:31:05 51°16.666 2°53.052 11.5 323 15.9 102110 44
2009-09-29 07:31:10 51°16.679 2°53.042 11.7 321 15.9 102110 44
2009-09-29 07:31:14 51°16.69 2°53.035 11.6 279 15.9 102080 43
2009-09-29 07:31:20 51°16.706 2°53.023 13.4 322 15.9 102080 43
2009-09-29 07:31:25 51°16.719 2°53.014 11.6 281 15.9 102090 44
2009-09-29 07:31:30 51°16.732 2°53.004 13.3 322 15.9 102090 44
2009-09-29 07:31:34 51°16.743 2°52.997 11 283 15.9 102090 45
2009-09-29 07:31:40 51°16.759 2°52.984 12.1 319 15.9 102090 45
2009-09-29 07:31:44 51°16.769 2°52.976 11.2 282 15.9 102100 42
2009-09-29 07:31:49 51°16.782 2°52.965 11.7 321 15.9 102100 42
2009-09-29 07:31:55 51°16.798 2°52.953 11.7 278 15.9 102110 44
2009-09-29 07:32:00 51°16.811 2°52.942 12.4 320 15.9 102110 44
2009-09-29 07:32:05 51°16.824 2°52.931 11.2 321 15.9 102110 45
2009-09-29 07:32:09 51°16.834 2°52.922 12.1 319 15.9 102110 45
2009-09-29 07:32:14 51°16.847 2°52.911 10.8 277 15.9 102110 45
2009-09-29 07:32:20 51°16.863 2°52.898 12.6 322 15.9 102110 45
2009-09-29 07:32:25 51°16.876 2°52.887 11.8 277 15.9 102100 45
2009-09-29 07:32:29 51°16.886 2°52.878 13.1 321 15.9 102100 45
2009-09-29 07:32:34 51°16.899 2°52.866 11.8 276 16 102100 45
2009-09-29 07:32:40 51°16.914 2°52.853 12.4 324 16 102100 45
2009-09-29 07:32:45 51°16.927 2°52.841 12.8 278 16 102100 44
2009-09-29 07:32:49 51°16.937 2°52.832 12.7 322 16 102100 44
2009-09-29 07:32:54 51°16.95 2°52.82 11.3 281 16 102090 42
2009-09-29 07:33:00 51°16.965 2°52.806 13.2 323 16 102090 42
2009-09-29 07:33:05 51°16.978 2°52.794 11.8 323 15.9 102090 42
2009-09-29 07:33:09 51°16.988 2°52.784 13.1 325 15.9 102090 42
2009-09-29 07:33:15 51°17.003 2°52.769 13.6 285 15.9 102100 45
2009-09-29 07:33:20 51°17.015 2°52.757 12.9 324 15.9 102100 45
2009-09-29 07:33:24 51°17.025 2°52.746 13.3 281 15.9 102090 44
2009-09-29 07:33:30 51°17.04 2°52.731 12.1 324 15.9 102090 44
2009-09-29 07:33:35 51°17.053 2°52.719 11.5 278 15.9 102100 42
2009-09-29 07:33:40 51°17.065 2°52.706 11.6 324 15.9 102100 42
2009-09-29 07:33:44 51°17.075 2°52.695 11.6 277 15.9 102100 44
2009-09-29 07:33:49 51°17.087 2°52.682 11.7 324 15.9 102100 44
2009-09-29 07:33:54 51°17.099 2°52.669 13.6 281 15.9 102090 45
2009-09-29 07:34:00 51°17.114 2°52.653 12.5 321 15.9 102090 45
2009-09-29 07:34:05 51°17.126 2°52.64 13.8 321 15.9 102110 43
2009-09-29 07:34:09 51°17.136 2°52.63 12.2 322 15.9 102110 43
2009-09-29 07:34:14 51°17.148 2°52.618 11.5 280 15.9 102100 43
2009-09-29 07:34:20 51°17.163 2°52.605 14.2 316 15.9 102100 43
2009-09-29 07:34:25 51°17.176 2°52.596 11.8 287 15.9 102090 45
2009-09-29 07:34:29 51°17.187 2°52.59 11.7 317 15.9 102090 45
2009-09-29 07:34:34 51°17.2 2°52.582 11.4 285 15.9 102100 42
2009-09-29 07:34:39 51°17.214 2°52.575 11.9 317 15.9 102100 42
2009-09-29 07:34:45 51°17.231 2°52.567 12.5 281 15.9 102070 43
2009-09-29 07:34:49 51°17.243 2°52.562 13.1 34 15.9 102070 43
2009-09-29 07:34:54 51°17.256 2°52.556 12 282 15.9 102100 43
2009-09-29 07:35:00 51°17.274 2°52.55 10.6 318 15.9 102100 43
2009-09-29 07:35:05 51°17.288 2°52.544 10.4 316 15.9 102090 42
2009-09-29 07:35:09 51°17.3 2°52.541 12.6 318 15.9 102090 42
2009-09-29 07:35:14 51°17.315 2°52.537 14 282 15.9 102100 42
2009-09-29 07:35:20 51°17.331 2°52.532 13.1 315 15.9 102100 42
2009-09-29 07:35:24 51°17.343 2°52.53 13.4 280 15.9 102080 42
2009-09-29 07:35:29 51°17.358 2°52.528 13.1 39 15.9 102080 42
2009-09-29 07:35:35 51°17.376 2°52.526 11.8 281 15.9 102100 42
2009-09-29 07:35:40 51°17.391 2°52.525 12.7 34 15.9 102100 42
2009-09-29 07:35:44 51°17.403 2°52.525 13.4 282 15.9 102100 43
2009-09-29 07:35:49 51°17.418 2°52.525 12.1 37 15.9 102100 43
2009-09-29 07:35:54 51°17.433 2°52.526 10.7 279 15.9 102090 43
2009-09-29 07:36:00 51°17.45 2°52.526 11.9 33 15.9 102090 43
2009-09-29 07:36:05 51°17.465 2°52.527 11.9 26 15.9 102100 42
2009-09-29 07:36:09 51°17.476 2°52.529 10.1 35 15.9 102100 42
2009-09-29 07:36:15 51°17.494 2°52.529 12.1 281 15.9 102100 42
2009-09-29 07:36:20 51°17.509 2°52.53 10.8 35 15.9 102100 42
2009-09-29 07:36:25 51°17.524 2°52.53 11.2 278 15.9 102100 42
2009-09-29 07:36:29 51°17.536 2°52.532 12.4 33 15.9 102100 42
2009-09-29 07:36:34 51°17.55 2°52.533 12 286 15.9 102090 43
2009-09-29 07:36:40 51°17.568 2°52.535 11.9 36 15.9 102090 43
2009-09-29 07:36:44 51°17.58 2°52.536 12 280 15.9 102110 42
2009-09-29 07:36:50 51°17.599 2°52.537 10.8 233 15.9 102110 42
2009-09-29 07:36:54 51°17.611 2°52.538 11.9 279 15.9 102100 45
2009-09-29 07:37:00 51°17.629 2°52.539 11.3 41 15.9 102100 45
2009-09-29 07:37:05 51°17.644 2°52.54 11.4 25 15.9 102100 44
2009-09-29 07:37:09 51°17.656 2°52.541 11.7 316 15.9 102100 44
2009-09-29 07:37:14 51°17.671 2°52.542 13.6 281 15.9 102100 42
2009-09-29 07:37:20 51°17.689 2°52.544 11.2 36 15.9 102100 42
2009-09-29 07:37:25 51°17.704 2°52.545 12.7 285 15.8 102110 44
2009-09-29 07:37:29 51°17.716 2°52.546 12.2 34 15.8 102110 44
2009-09-29 07:37:35 51°17.734 2°52.546 10.9 281 15.9 102110 44
2009-09-29 07:37:40 51°17.749 2°52.547 10.9 34 15.9 102110 44
2009-09-29 07:37:44 51°17.761 2°52.548 10.8 283 15.8 102090 45
2009-09-29 07:37:50 51°17.779 2°52.549 10.5 32 15.8 102090 45
2009-09-29 07:37:54 51°17.792 2°52.549 11.5 285 15.8 102100 42
2009-09-29 07:38:00 51°17.809 2°52.55 10.8 36 15.8 102100 42
2009-09-29 07:38:04 51°17.822 2°52.551 10.3 23 15.8 102100 42
2009-09-29 07:38:09 51°17.837 2°52.551 10 35 15.8 102100 42
2009-09-29 07:38:15 51°17.855 2°52.552 12.8 280 15.8 102100 44
2009-09-29 07:38:20 51°17.87 2°52.553 11.8 32 15.8 102100 44
2009-09-29 07:38:24 51°17.882 2°52.553 11.5 282 15.8 102110 44
2009-09-29 07:38:29 51°17.897 2°52.554 10.8 33 15.8 102110 44
2009-09-29 07:38:35 51°17.915 2°52.555 11.8 283 15.8 102110 42
2009-09-29 07:38:40 51°17.93 2°52.555 11.1 39 15.8 102110 42
2009-09-29 07:38:45 51°17.944 2°52.556 11.1 281 15.9 102090 45
2009-09-29 07:38:49 51°17.956 2°52.557 12.6 34 15.9 102090 45
2009-09-29 07:38:54 51°17.971 2°52.557 12.5 281 15.8 102110 43
2009-09-29 07:39:00 51°17.989 2°52.557 12.1 36 15.8 102110 43
2009-09-29 07:39:05 51°18.004 2°52.558 10.6 25 15.9 102110 45
2009-09-29 07:39:09 51°18.016 2°52.558 10.4 33 15.9 102110 45
2009-09-29 07:39:14 51°18.031 2°52.559 12.2 282 15.9 102120 45
2009-09-29 07:39:20 51°18.049 2°52.56 11.6 33 15.9 102120 45
2009-09-29 07:39:25 51°18.064 2°52.56 11.2 282 15.8 102100 43
2009-09-29 07:39:29 51°18.076 2°52.561 10.9 39 15.8 102100 43
2009-09-29 07:39:34 51°18.09 2°52.561 11.9 281 15.8 102100 44
2009-09-29 07:39:40 51°18.108 2°52.562 10 38 15.8 102100 44
2009-09-29 07:39:45 51°18.123 2°52.563 9.8 285 15.8 102100 43
2009-09-29 07:39:50 51°18.138 2°52.564 10.2 32 15.8 102100 43
2009-09-29 07:39:56 51°18.155 2°52.566 11.5 278 15.8 102110 44
2009-09-29 07:40:01 51°18.169 2°52.566 11.5 37 15.8 102110 44
2009-09-29 07:40:05 51°18.18 2°52.566 11.2 27 15.9 102110 42
2009-09-29 07:40:11 51°18.198 2°52.566 12.4 36 15.9 102110 42
2009-09-29 07:40:15 51°18.21 2°52.567 12.4 283 15.9 102110 43
2009-09-29 07:40:20 51°18.225 2°52.567 10.8 33 15.9 102110 43
2009-09-29 07:40:25 51°18.239 2°52.568 11.5 286 15.8 102100 42
2009-09-29 07:40:30 51°18.254 2°52.567 11.1 37 15.8 102100 42
2009-09-29 07:40:35 51°18.27 2°52.567 10.4 282 15.8 102100 42
2009-09-29 07:40:40 51°18.284 2°52.568 9.7 32 15.8 102100 42
2009-09-29 07:40:45 51°18.299 2°52.568 10.1 277 15.8 102110 43
2009-09-29 07:40:49 51°18.311 2°52.568 10.3 35 15.8 102110 43
2009-09-29 07:40:54 51°18.326 2°52.568 11.6 279 15.8 102100 44
2009-09-29 07:41:00 51°18.344 2°52.569 10.6 37 15.8 102100 44
2009-09-29 07:41:04 51°18.357 2°52.569 11.7 20 15.8 102110 44
2009-09-29 07:41:09 51°18.372 2°52.57 10.8 35 15.8 102110 44
2009-09-29 07:41:14 51°18.387 2°52.57 12.8 283 15.8 102100 43
2009-09-29 07:41:20 51°18.405 2°52.571 11.1 35 15.8 102100 43
2009-09-29 07:41:25 51°18.42 2°52.571 11 283 15.8 102110 44
2009-09-29 07:41:29 51°18.432 2°52.573 9.8 32 15.8 102110 44
2009-09-29 07:41:34 51°18.447 2°52.573 10.3 282 15.8 102110 44
2009-09-29 07:41:40 51°18.465 2°52.573 10.5 35 15.8 102110 44
2009-09-29 07:41:45 51°18.48 2°52.574 10.1 281 15.9 102090 43
2009-09-29 07:41:50 51°18.495 2°52.573 9.6 38 15.9 102090 43
2009-09-29 07:41:54 51°18.507 2°52.574 11 278 15.8 102120 42
2009-09-29 07:42:00 51°18.526 2°52.574 9.7 35 15.8 102120 42
2009-09-29 07:42:05 51°18.541 2°52.575 10.7 316 15.8 102100 41
2009-09-29 07:42:09 51°18.553 2°52.575 11.8 36 15.8 102100 41
2009-09-29 07:42:14 51°18.567 2°52.575 9.8 281 15.8 102120 41
2009-09-29 07:42:20 51°18.585 2°52.576 11.1 33 15.8 102120 41
2009-09-29 07:42:24 51°18.598 2°52.577 11.1 282 15.9 102100 42
2009-09-29 07:42:29 51°18.612 2°52.577 11 37 15.9 102100 42
2009-09-29 07:42:35 51°18.631 2°52.578 10.9 280 15.8 102120 42
2009-09-29 07:42:40 51°18.646 2°52.578 11.9 34 15.8 102120 42
2009-09-29 07:42:44 51°18.658 2°52.578 11.3 286 15.8 102110 43
2009-09-29 07:42:49 51°18.673 2°52.578 11.1 37 15.8 102110 43
2009-09-29 07:42:55 51°18.691 2°52.579 12 284 15.8 102110 42
2009-09-29 07:43:00 51°18.706 2°52.578 11.4 38 15.8 102110 42
2009-09-29 07:43:05 51°18.72 2°52.579 11.3 22 15.8 102100 42
2009-09-29 07:43:09 51°18.732 2°52.579 11 32 15.8 102100 42
2009-09-29 07:43:14 51°18.747 2°52.58 9.1 276 15.8 102100 45
2009-09-29 07:43:20 51°18.765 2°52.58 10.2 39 15.8 102100 45
2009-09-29 07:43:25 51°18.78 2°52.582 11.1 281 15.8 102110 44
2009-09-29 07:43:29 51°18.792 2°52.582 10.5 316 15.8 102110 44
2009-09-29 07:43:34 51°18.806 2°52.583 10.7 282 15.8 102110 43
2009-09-29 07:43:40 51°18.823 2°52.584 10.8 33 15.8 102110 43
2009-09-29 07:43:44 51°18.835 2°52.584 12.4 281 15.9 102120 43
2009-09-29 07:43:50 51°18.853 2°52.585 10.4 35 15.9 102120 43
2009-09-29 07:43:54 51°18.864 2°52.585 12.3 280 15.9 102110 42
2009-09-29 07:44:00 51°18.882 2°52.585 11.4 32 15.9 102110 42
2009-09-29 07:44:05 51°18.897 2°52.586 11.3 22 15.9 102100 43
2009-09-29 07:44:09 51°18.909 2°52.586 10.8 35 15.9 102100 43
2009-09-29 07:44:15 51°18.926 2°52.587 11.4 278 15.8 102090 40
2009-09-29 07:44:20 51°18.941 2°52.587 10.7 40 15.8 102090 40
2009-09-29 07:44:25 51°18.956 2°52.587 10.2 282 15.8 102090 44
2009-09-29 07:44:30 51°18.97 2°52.587 10.4 39 15.8 102090 44
2009-09-29 07:44:34 51°18.982 2°52.588 10.6 279 15.8 102090 45
2009-09-29 07:44:40 51°19 2°52.589 11.1 34 15.8 102090 45
2009-09-29 07:44:44 51°19.012 2°52.589 10.2 278 15.8 102090 43
2009-09-29 07:44:50 51°19.03 2°52.59 11.7 36 15.8 102090 43
2009-09-29 07:44:55 51°19.045 2°52.59 11 282 15.8 102110 45
2009-09-29 07:45:00 51°19.06 2°52.591 12.6 35 15.8 102110 45
2009-09-29 07:45:04 51°19.072 2°52.591 12.3 25 15.8 102110 44
2009-09-29 07:45:09 51°19.087 2°52.592 12.3 37 15.8 102110 44
2009-09-29 07:45:15 51°19.105 2°52.593 12.3 282 15.8 102100 42
2009-09-29 07:45:20 51°19.12 2°52.593 10.2 33 15.8 102100 42
2009-09-29 07:45:24 51°19.132 2°52.594 11.1 286 15.8 102100 43
2009-09-29 07:45:29 51°19.147 2°52.594 10.5 37 15.8 102100 43
2009-09-29 07:45:35 51°19.166 2°52.595 13.1 284 15.8 102100 43
2009-09-29 07:45:40 51°19.181 2°52.596 11.1 31 15.8 102100 43
2009-09-29 07:45:45 51°19.196 2°52.596 12.9 282 15.8 102100 44
2009-09-29 07:45:49 51°19.209 2°52.596 12.2 34 15.8 102100 44
2009-09-29 07:45:54 51°19.224 2°52.596 11.8 278 15.8 102110 45
2009-09-29 07:46:00 51°19.242 2°52.596 11.2 39 15.8 102110 45
2009-09-29 07:46:05 51°19.257 2°52.598 12.1 27 15.9 102100 43
2009-09-29 07:46:09 51°19.269 2°52.598 11.4 39 15.9 102100 43
2009-09-29 07:46:14 51°19.284 2°52.598 10.8 277 15.9 102110 44
2009-09-29 07:46:20 51°19.302 2°52.599 10.1 38 15.9 102110 44
2009-09-29 07:46:25 51°19.317 2°52.599 10.6 285 15.8 102090 43
2009-09-29 07:46:29 51°19.329 2°52.6 10.9 34 15.8 102090 43
2009-09-29 07:46:35 51°19.347 2°52.6 11 285 15.8 102100 45
2009-09-29 07:46:40 51°19.363 2°52.6 11.3 38 15.8 102100 45
2009-09-29 07:46:45 51°19.378 2°52.6 12.6 278 15.8 102090 42
2009-09-29 07:46:50 51°19.393 2°52.601 12.4 35 15.8 102090 42
2009-09-29 07:46:54 51°19.405 2°52.601 11.9 286 15.8 102100 41
2009-09-29 07:47:00 51°19.423 2°52.602 11.4 33 15.8 102100 41
2009-09-29 07:47:04 51°19.435 2°52.602 9.9 25 15.9 102090 42
2009-09-29 07:47:09 51°19.45 2°52.602 10.6 317 15.9 102090 42
2009-09-29 07:47:15 51°19.469 2°52.602 11.2 280 15.9 102100 43
2009-09-29 07:47:20 51°19.484 2°52.602 12.2 316 15.9 102100 43
2009-09-29 07:47:24 51°19.496 2°52.602 11.6 282 15.9 102090 44
2009-09-29 07:47:29 51°19.512 2°52.603 12.5 315 15.9 102090 44
2009-09-29 07:47:35 51°19.53 2°52.602 10.9 277 15.9 102110 42
2009-09-29 07:47:40 51°19.545 2°52.603 12.1 35 15.9 102110 42
2009-09-29 07:47:45 51°19.56 2°52.604 11.3 285 15.9 102100 43
2009-09-29 07:47:49 51°19.572 2°52.605 12.2 31 15.9 102100 43
2009-09-29 07:47:54 51°19.587 2°52.605 12.9 280 15.8 102100 42
2009-09-29 07:48:00 51°19.605 2°52.607 11.3 38 15.8 102100 42
2009-09-29 07:48:05 51°19.621 2°52.609 10.5 28 15.8 102100 42
2009-09-29 07:48:09 51°19.633 2°52.609 12 35 15.8 102100 42
2009-09-29 07:48:14 51°19.647 2°52.611 11.1 285 15.8 102090 44
2009-09-29 07:48:20 51°19.665 2°52.612 11.7 33 15.8 102090 44
2009-09-29 07:48:25 51°19.68 2°52.615 11.3 283 15.8 102080 45
2009-09-29 07:48:29 51°19.692 2°52.615 10.2 33 15.8 102080 45
2009-09-29 07:48:34 51°19.708 2°52.618 11.3 286 15.8 102110 45
2009-09-29 07:48:40 51°19.726 2°52.62 10.7 317 15.8 102110 45
2009-09-29 07:48:45 51°19.741 2°52.622 12.1 280 15.8 102090 44
2009-09-29 07:48:49 51°19.753 2°52.624 11.4 38 15.8 102090 44
2009-09-29 07:48:54 51°19.768 2°52.626 11.8 283 15.9 102100 44
2009-09-29 07:49:00 51°19.786 2°52.628 10.6 39 15.9 102100 44
2009-09-29 07:49:05 51°19.801 2°52.629 12.5 28 15.9 102090 44
2009-09-29 07:49:09 51°19.813 2°52.631 10.5 36 15.9 102090 44
2009-09-29 07:49:15 51°19.831 2°52.634 11.5 282 15.9 102100 42
2009-09-29 07:49:20 51°19.846 2°52.635 10.9 38 15.9 102100 42
2009-09-29 07:49:24 51°19.858 2°52.637 13.8 284 15.9 102100 45
2009-09-29 07:49:29 51°19.873 2°52.639 13.4 33 15.9 102100 45
2009-09-29 07:49:35 51°19.891 2°52.641 11.4 283 15.9 102110 43
2009-09-29 07:49:40 51°19.906 2°52.643 11.3 38 15.9 102110 43
2009-09-29 07:49:45 51°19.92 2°52.645 11.3 281 15.9 102100 42
2009-09-29 07:49:49 51°19.932 2°52.646 13.1 35 15.9 102100 42
2009-09-29 07:49:55 51°19.95 2°52.648 11.2 284 15.9 102100 44
2009-09-29 07:50:00 51°19.966 2°52.651 11 36 15.9 102100 44
2009-09-29 07:50:05 51°19.981 2°52.652 12.5 26 15.9 102100 42
2009-09-29 07:50:09 51°19.993 2°52.655 12.7 37 15.9 102100 42
2009-09-29 07:50:14 51°20.008 2°52.656 10.6 286 15.9 102090 43
2009-09-29 07:50:20 51°20.027 2°52.658 11.3 33 15.9 102090 43
2009-09-29 07:50:25 51°20.042 2°52.66 10.6 278 15.9 102090 45
2009-09-29 07:50:29 51°20.054 2°52.662 10.9 33 15.9 102090 45
2009-09-29 07:50:34 51°20.069 2°52.664 10.9 278 15.8 102100 42
2009-09-29 07:50:40 51°20.087 2°52.666 12.4 34 15.8 102100 42
2009-09-29 07:50:45 51°20.103 2°52.668 10.8 285 15.9 102110 43
2009-09-29 07:50:50 51°20.118 2°52.67 11.5 37 15.9 102110 43
2009-09-29 07:50:54 51°20.13 2°52.671 11.4 283 15.9 102110 45
2009-09-29 07:51:00 51°20.148 2°52.673 10.1 38 15.9 102110 45
2009-09-29 07:51:05 51°20.163 2°52.675 13.1 316 15.9 102100 45
2009-09-29 07:51:09 51°20.175 2°52.676 11.7 35 15.9 102100 45
2009-09-29 07:51:14 51°20.19 2°52.678 12.8 276 15.9 102110 43
2009-09-29 07:51:20 51°20.209 2°52.68 11 231 15.9 102110 43
2009-09-29 07:51:24 51°20.221 2°52.681 11 280 15.9 102100 45
2009-09-29 07:51:29 51°20.236 2°52.683 10.9 36 15.9 102100 45
2009-09-29 07:51:35 51°20.254 2°52.685 11.3 277 15.9 102090 43
2009-09-29 07:51:40 51°20.268 2°52.687 10 315 15.9 102090 43
2009-09-29 07:51:44 51°20.28 2°52.688 13 281 15.9 102090 45
2009-09-29 07:51:49 51°20.295 2°52.69 11.6 34 15.9 102090 45
2009-09-29 07:51:54 51°20.311 2°52.692 10.3 280 15.9 102100 45
2009-09-29 07:52:00 51°20.329 2°52.694 10.9 37 15.9 102100 45
2009-09-29 07:52:05 51°20.344 2°52.696 11.8 22 15.9 102110 42
2009-09-29 07:52:09 51°20.356 2°52.697 10.9 38 15.9 102110 42
2009-09-29 07:52:14 51°20.371 2°52.699 11.3 27 15.8 102090 41
2009-09-29 07:52:20 51°20.389 2°52.702 12.4 35 15.8 102090 41
2009-09-29 07:52:24 51°20.401 2°52.703 10.3 280 15.8 102110 45
2009-09-29 07:52:29 51°20.416 2°52.705 10.8 38 15.8 102110 45
2009-09-29 07:52:34 51°20.431 2°52.707 10.8 283 15.8 102090 42
2009-09-29 07:52:40 51°20.45 2°52.709 11.1 36 15.8 102090 42
2009-09-29 07:52:45 51°20.465 2°52.711 11.5 283 15.8 102100 42
2009-09-29 07:52:50 51°20.48 2°52.713 10.8 37 15.8 102100 42
2009-09-29 07:52:54 51°20.492 2°52.714 11.1 281 15.9 102110 44
2009-09-29 07:53:00 51°20.511 2°52.716 11.7 39 15.9 102110 44
2009-09-29 07:53:05 51°20.526 2°52.718 11.5 26 15.9 102110 43
2009-09-29 07:53:09 51°20.538 2°52.719 10.9 36 15.9 102110 43
2009-09-29 07:53:14 51°20.554 2°52.721 12 279 15.9 102110 45
2009-09-29 07:53:20 51°20.572 2°52.724 11.7 37 15.9 102110 45
2009-09-29 07:53:24 51°20.585 2°52.725 12.9 280 15.9 102100 43
2009-09-29 07:53:29 51°20.6 2°52.728 11.6 35 15.9 102100 43
2009-09-29 07:53:35 51°20.619 2°52.731 12.1 282 15.9 102110 42
2009-09-29 07:53:40 51°20.633 2°52.732 13 36 15.9 102110 42
2009-09-29 07:53:44 51°20.646 2°52.733 10.8 282 15.9 102100 45
2009-09-29 07:53:50 51°20.664 2°52.735 11.5 36 15.9 102100 45
2009-09-29 07:53:54 51°20.676 2°52.737 11.5 283 15.9 102100 43
2009-09-29 07:54:00 51°20.694 2°52.739 10.5 34 15.9 102100 43
2009-09-29 07:54:05 51°20.709 2°52.741 10.9 26 15.9 102110 45
2009-09-29 07:54:10 51°20.724 2°52.743 11.4 34 15.9 102110 45
2009-09-29 07:54:14 51°20.736 2°52.745 11.7 278 15.9 102100 42
2009-09-29 07:54:20 51°20.754 2°52.748 12.5 38 15.9 102100 42
2009-09-29 07:54:24 51°20.766 2°52.749 11.3 283 15.9 102100 43
2009-09-29 07:54:29 51°20.781 2°52.751 9.4 36 15.9 102100 43
2009-09-29 07:54:35 51°20.798 2°52.754 10.5 284 15.9 102100 45
2009-09-29 07:54:40 51°20.812 2°52.755 11.5 34 15.9 102100 45
2009-09-29 07:54:44 51°20.824 2°52.757 10.9 278 15.9 102110 44
2009-09-29 07:54:49 51°20.839 2°52.759 11.7 39 15.9 102110 44
2009-09-29 07:54:54 51°20.854 2°52.761 10.3 283 15.9 102100 43
2009-09-29 07:55:00 51°20.872 2°52.764 12.3 36 15.9 102100 43
2009-09-29 07:55:05 51°20.887 2°52.766 10.3 28 15.9 102100 45
2009-09-29 07:55:09 51°20.899 2°52.767 11.4 33 15.9 102100 45
2009-09-29 07:55:14 51°20.913 2°52.769 11.2 276 15.9 102110 45
2009-09-29 07:55:20 51°20.931 2°52.772 10.3 37 15.9 102110 45
2009-09-29 07:55:25 51°20.946 2°52.773 12.9 280 15.9 102120 42
2009-09-29 07:55:29 51°20.959 2°52.775 12 33 15.9 102120 42
2009-09-29 07:55:34 51°20.974 2°52.776 12 282 15.9 102110 45
2009-09-29 07:55:40 51°20.992 2°52.779 11.7 31 15.9 102110 45
2009-09-29 07:55:45 51°21.007 2°52.781 12.3 282 15.9 102100 43
2009-09-29 07:55:50 51°21.023 2°52.783 12 33 15.9 102100 43
2009-09-29 07:55:54 51°21.035 2°52.785 11.3 276 15.9 102090 43
2009-09-29 07:56:00 51°21.053 2°52.788 10.4 34 15.9 102090 43
2009-09-29 07:56:04 51°21.065 2°52.79 12.8 26 15.9 102090 42
2009-09-29 07:56:09 51°21.08 2°52.793 11.7 232 15.9 102090 42
2009-09-29 07:56:15 51°21.098 2°52.796 10.5 281 15.9 102100 44
2009-09-29 07:56:20 51°21.113 2°52.8 11.5 32 15.9 102100 44
2009-09-29 07:56:25 51°21.129 2°52.802 10.8 277 15.8 102090 44
2009-09-29 07:56:29 51°21.141 2°52.805 10.8 38 15.8 102090 44
2009-09-29 07:56:34 51°21.156 2°52.808 12.5 285 15.8 102090 42
2009-09-29 07:56:40 51°21.174 2°52.812 12.6 31 15.8 102090 42
2009-09-29 07:56:45 51°21.189 2°52.816 12.2 282 15.8 102100 42
2009-09-29 07:56:49 51°21.201 2°52.819 10.7 36 15.8 102100 42
2009-09-29 07:56:54 51°21.216 2°52.821 11.4 283 15.8 102100 44
2009-09-29 07:57:00 51°21.235 2°52.826 13.2 236 15.8 102100 44
2009-09-29 07:57:05 51°21.249 2°52.829 11.6 23 15.8 102090 43
2009-09-29 07:57:09 51°21.261 2°52.832 12.6 38 15.8 102090 43
2009-09-29 07:57:14 51°21.276 2°52.834 11.6 281 15.8 102100 45
2009-09-29 07:57:20 51°21.294 2°52.839 12.9 233 15.8 102100 45
2009-09-29 07:57:25 51°21.309 2°52.841 11.9 281 15.9 102090 45
2009-09-29 07:57:29 51°21.321 2°52.844 11.6 33 15.9 102090 45
2009-09-29 07:57:34 51°21.336 2°52.847 11.4 281 15.9 102100 42
2009-09-29 07:57:40 51°21.354 2°52.85 11.8 38 15.9 102100 42
2009-09-29 07:57:45 51°21.369 2°52.853 10.1 281 15.9 102100 43
2009-09-29 07:57:50 51°21.384 2°52.857 12 38 15.9 102100 43
2009-09-29 07:57:54 51°21.396 2°52.86 11.6 282 15.9 102090 44
2009-09-29 07:58:00 51°21.414 2°52.863 10 35 15.9 102090 44
2009-09-29 07:58:05 51°21.428 2°52.867 11.7 22 15.9 102100 45
2009-09-29 07:58:09 51°21.44 2°52.87 10.5 235 15.9 102100 45
2009-09-29 07:58:14 51°21.455 2°52.873 11.6 285 15.9 102110 42
2009-09-29 07:58:20 51°21.472 2°52.877 12.1 30 15.9 102110 42
2009-09-29 07:58:24 51°21.484 2°52.88 10.7 281 15.9 102110 43
2009-09-29 07:58:29 51°21.499 2°52.884 12.3 234 15.9 102110 43
2009-09-29 07:58:35 51°21.517 2°52.888 12.8 279 15.9 102090 43
2009-09-29 07:58:40 51°21.532 2°52.891 14 36 15.9 102090 43
2009-09-29 07:58:44 51°21.544 2°52.893 9.9 282 15.9 102090 45
2009-09-29 07:58:49 51°21.559 2°52.897 13.1 34 15.9 102090 45
2009-09-29 07:58:55 51°21.578 2°52.901 11.7 282 15.9 102100 44
2009-09-29 07:59:00 51°21.592 2°52.905 12.3 36 15.9 102100 44
2009-09-29 07:59:05 51°21.608 2°52.909 11.8 26 15.9 102100 42
2009-09-29 07:59:09 51°21.62 2°52.912 11.8 37 15.9 102100 42
2009-09-29 07:59:14 51°21.635 2°52.915 11 282 15.9 102110 43
2009-09-29 07:59:20 51°21.654 2°52.92 10.6 33 15.9 102110 43
2009-09-29 07:59:25 51°21.669 2°52.924 11.2 279 15.9 102100 45
2009-09-29 07:59:29 51°21.682 2°52.927 11 234 15.9 102100 45
2009-09-29 07:59:34 51°21.697 2°52.931 10.4 280 15.9 102100 43
2009-09-29 07:59:40 51°21.715 2°52.936 10.8 38 15.9 102100 43
2009-09-29 07:59:45 51°21.731 2°52.94 10.3 281 15.8 102090 44
2009-09-29 07:59:50 51°21.746 2°52.945 11.2 35 15.8 102090 44
2009-09-29 07:59:54 51°21.757 2°52.948 11.6 279 15.8 102090 42
2009-09-29 08:00:00 51°21.775 2°52.953 10.7 39 15.8 102090 42
2009-09-29 08:00:05 51°21.79 2°52.957 10.1 24 15.9 102100 44
2009-09-29 08:00:09 51°21.802 2°52.96 10.6 35 15.9 102100 44
2009-09-29 08:00:14 51°21.817 2°52.964 12.5 284 15.9 102090 43
2009-09-29 08:00:20 51°21.835 2°52.969 12.4 35 15.9 102090 43
2009-09-29 08:00:25 51°21.851 2°52.972 10.6 280 15.9 102090 44
2009-09-29 08:00:30 51°21.865 2°52.976 11.2 37 15.9 102090 44
2009-09-29 08:00:35 51°21.881 2°52.98 12.7 281 15.9 102110 44
2009-09-29 08:00:40 51°21.896 2°52.983 11.1 232 15.9 102110 44
2009-09-29 08:00:44 51°21.908 2°52.987 10.9 278 15.9 102090 45
2009-09-29 08:00:49 51°21.923 2°52.991 11.5 234 15.9 102090 45
2009-09-29 08:00:54 51°21.939 2°52.995 9.7 284 15.9 102100 43
2009-09-29 08:01:00 51°21.957 2°52.999 10.9 233 15.9 102100 43
2009-09-29 08:01:05 51°21.973 2°53.004 10.5 23 15.9 102090 44
2009-09-29 08:01:09 51°21.985 2°53.006 10.7 232 15.9 102090 44
2009-09-29 08:01:15 51°22.004 2°53.011 11.9 282 15.8 102090 45
2009-09-29 08:01:20 51°22.019 2°53.015 11.8 33 15.8 102090 45
2009-09-29 08:01:24 51°22.031 2°53.018 10.3 280 15.9 102090 42
2009-09-29 08:01:29 51°22.047 2°53.022 11.1 235 15.9 102090 42
2009-09-29 08:01:34 51°22.062 2°53.026 11.8 282 15.9 102100 44
2009-09-29 08:01:40 51°22.079 2°53.031 11.6 235 15.9 102100 44
2009-09-29 08:01:45 51°22.094 2°53.035 11 284 15.9 102100 42
2009-09-29 08:01:49 51°22.106 2°53.039 11.2 32 15.9 102100 42
2009-09-29 08:01:54 51°22.121 2°53.043 12.9 284 15.8 102100 44
2009-09-29 08:02:00 51°22.139 2°53.047 11.8 37 15.8 102100 44
2009-09-29 08:02:05 51°22.154 2°53.051 12.8 25 15.9 102080 42
2009-09-29 08:02:09 51°22.166 2°53.054 12.7 36 15.9 102080 42
2009-09-29 08:02:14 51°22.181 2°53.058 13.1 286 15.9 102100 44
2009-09-29 08:02:20 51°22.199 2°53.063 12.6 36 15.9 102100 44
2009-09-29 08:02:24 51°22.211 2°53.066 11.1 281 15.9 102090 42
2009-09-29 08:02:30 51°22.23 2°53.07 10.2 36 15.9 102090 42
2009-09-29 08:02:34 51°22.242 2°53.073 11.2 278 15.9 102080 44
2009-09-29 08:02:40 51°22.26 2°53.077 12.6 35 15.9 102080 44
2009-09-29 08:02:45 51°22.275 2°53.082 11.7 282 15.8 102090 43
2009-09-29 08:02:50 51°22.289 2°53.085 10.2 37 15.8 102090 43
2009-09-29 08:02:55 51°22.304 2°53.089 12.1 280 15.9 102100 44
2009-09-29 08:03:00 51°22.319 2°53.093 12.2 37 15.9 102100 44
2009-09-29 08:03:05 51°22.333 2°53.097 11.4 27 15.9 102100 44
2009-09-29 08:03:10 51°22.348 2°53.1 11.7 35 15.9 102100 44
2009-09-29 08:03:15 51°22.363 2°53.104 12.9 279 15.9 102100 43
2009-09-29 08:03:20 51°22.378 2°53.107 11.3 34 15.9 102100 43
2009-09-29 08:03:25 51°22.394 2°53.111 10.7 278 15.9 102090 45
2009-09-29 08:03:29 51°22.406 2°53.114 11.9 37 15.9 102090 45
2009-09-29 08:03:34 51°22.421 2°53.118 11.2 278 15.9 102090 43
2009-09-29 08:03:40 51°22.439 2°53.124 12.6 38 15.9 102090 43
2009-09-29 08:03:45 51°22.454 2°53.127 11.1 281 15.9 102090 44
2009-09-29 08:03:49 51°22.466 2°53.13 10.8 34 15.9 102090 44
2009-09-29 08:03:54 51°22.481 2°53.134 11.2 286 15.9 102100 43
2009-09-29 08:04:00 51°22.499 2°53.139 11.8 35 15.9 102100 43
2009-09-29 08:04:05 51°22.513 2°53.142 11.8 21 15.9 102100 43
2009-09-29 08:04:09 51°22.525 2°53.146 12.4 36 15.9 102100 43
2009-09-29 08:04:15 51°22.544 2°53.15 11.6 283 15.9 102090 44
2009-09-29 08:04:20 51°22.559 2°53.154 12.5 37 15.9 102090 44
2009-09-29 08:04:25 51°22.574 2°53.158 12.3 281 15.9 102090 42
2009-09-29 08:04:30 51°22.589 2°53.162 4.4 32 15.9 102090 42
2009-09-29 08:04:34 51°22.602 2°53.165 11 279 15.9 102080 42
2009-09-29 08:04:40 51°22.62 2°53.169 9.3 232 15.9 102080 42
2009-09-29 08:04:45 51°22.635 2°53.173 9.3 280 15.9 102100 42
2009-09-29 08:04:50 51°22.651 2°53.177 11.2 35 15.9 102100 42
2009-09-29 08:04:54 51°22.663 2°53.18 12.1 285 15.9 102080 43
2009-09-29 08:05:00 51°22.682 2°53.184 11.4 234 15.9 102080 43
2009-09-29 08:05:05 51°22.697 2°53.188 12.5 22 15.9 102090 42
2009-09-29 08:05:09 51°22.709 2°53.191 12.3 234 15.9 102090 42
2009-09-29 08:05:15 51°22.728 2°53.195 11.9 278 15.9 102090 45
2009-09-29 08:05:20 51°22.743 2°53.199 11.6 35 15.9 102090 45
2009-09-29 08:05:25 51°22.758 2°53.203 11.1 279 15.9 102080 45
2009-09-29 08:05:30 51°22.773 2°53.206 11.1 236 15.9 102080 45
2009-09-29 08:05:34 51°22.785 2°53.209 12.7 285 15.9 102090 43
2009-09-29 08:05:40 51°22.803 2°53.213 11.9 236 15.9 102090 43
2009-09-29 08:05:45 51°22.819 2°53.217 11.6 278 15.9 102100 45
2009-09-29 08:05:49 51°22.83 2°53.219 10.2 33 15.9 102100 45
2009-09-29 08:05:55 51°22.849 2°53.223 11 284 15.9 102090 44
2009-09-29 08:06:00 51°22.864 2°53.227 10.4 234 15.9 102090 44
2009-09-29 08:06:05 51°22.879 2°53.23 12.4 22 15.9 102090 42
2009-09-29 08:06:09 51°22.891 2°53.233 10.8 34 15.9 102090 42
2009-09-29 08:06:14 51°22.906 2°53.237 10.1 278 15.9 102100 44
2009-09-29 08:06:20 51°22.925 2°53.241 10.7 34 15.9 102100 44
2009-09-29 08:06:25 51°22.94 2°53.245 11.4 280 15.9 102090 43
2009-09-29 08:06:29 51°22.952 2°53.248 9.5 34 15.9 102090 43
2009-09-29 08:06:34 51°22.968 2°53.252 10.9 279 15.9 102080 45
2009-09-29 08:06:40 51°22.985 2°53.258 10.4 38 15.9 102080 45
2009-09-29 08:06:45 51°23 2°53.262 11.4 285 15.9 102100 46
2009-09-29 08:06:49 51°23.012 2°53.264 10.6 34 15.9 102100 46
2009-09-29 08:06:55 51°23.03 2°53.27 11.6 283 15.9 102090 42
2009-09-29 08:07:00 51°23.045 2°53.273 10.7 232 15.9 102090 42
2009-09-29 08:07:05 51°23.059 2°53.278 12.7 25 15.9 102080 45
2009-09-29 08:07:10 51°23.074 2°53.28 11.4 234 15.9 102080 45
2009-09-29 08:07:14 51°23.086 2°53.283 12.3 281 15.9 102100 45
2009-09-29 08:07:20 51°23.105 2°53.288 10.3 234 15.9 102100 45
2009-09-29 08:07:25 51°23.12 2°53.291 10.3 277 15.9 102090 42
2009-09-29 08:07:30 51°23.135 2°53.296 11.1 33 15.9 102090 42
2009-09-29 08:07:35 51°23.151 2°53.299 11.2 283 15.9 102070 42
2009-09-29 08:07:40 51°23.166 2°53.303 10.5 34 15.9 102070 42
2009-09-29 08:07:44 51°23.178 2°53.307 11.8 279 15.9 102090 45
2009-09-29 08:07:49 51°23.194 2°53.311 11.4 234 15.9 102090 45
2009-09-29 08:07:55 51°23.212 2°53.315 11.1 279 15.9 102100 45
2009-09-29 08:08:00 51°23.228 2°53.319 9.5 38 15.9 102100 45
2009-09-29 08:08:05 51°23.243 2°53.322 10.5 27 15.9 102090 44
2009-09-29 08:08:09 51°23.255 2°53.325 11.4 33 15.9 102090 44
2009-09-29 08:08:15 51°23.273 2°53.329 10 282 15.9 102090 45
2009-09-29 08:08:20 51°23.288 2°53.332 10.5 234 15.9 102090 45
2009-09-29 08:08:25 51°23.304 2°53.336 9.4 285 15.9 102090 44
2009-09-29 08:08:29 51°23.316 2°53.34 11.1 33 15.9 102090 44
2009-09-29 08:08:34 51°23.331 2°53.344 10.5 282 15.9 102090 45
2009-09-29 08:08:40 51°23.349 2°53.348 10.1 33 15.9 102090 45
2009-09-29 08:08:45 51°23.364 2°53.351 10.7 281 15.9 102100 42
2009-09-29 08:08:49 51°23.377 2°53.355 10.3 34 15.9 102100 42
2009-09-29 08:08:54 51°23.392 2°53.359 11.6 278 15.9 102110 44
2009-09-29 08:09:00 51°23.41 2°53.364 11.3 234 15.9 102110 44
2009-09-29 08:09:05 51°23.425 2°53.368 11 27 15.9 102100 44
2009-09-29 08:09:10 51°23.44 2°53.372 12.1 36 15.9 102100 44
2009-09-29 08:09:14 51°23.452 2°53.375 10.8 284 15.9 102090 45
2009-09-29 08:09:20 51°23.47 2°53.38 12 33 15.9 102090 45
2009-09-29 08:09:24 51°23.482 2°53.383 10.9 280 15.9 102080 45
2009-09-29 08:09:30 51°23.501 2°53.387 12.3 35 15.9 102080 45
2009-09-29 08:09:34 51°23.513 2°53.391 12 284 15.9 102100 45
2009-09-29 08:09:40 51°23.531 2°53.396 12.6 33 15.9 102100 45
2009-09-29 08:09:44 51°23.544 2°53.398 11.6 286 15.9 102080 42
2009-09-29 08:09:49 51°23.559 2°53.403 10.7 33 15.9 102080 42
2009-09-29 08:09:55 51°23.578 2°53.407 10.2 282 15.9 102080 45
2009-09-29 08:10:00 51°23.593 2°53.412 9.4 36 15.9 102080 45
2009-09-29 08:10:05 51°23.608 2°53.415 11.1 23 15.9 102090 43
2009-09-29 08:10:09 51°23.621 2°53.419 11.1 33 15.9 102090 43
2009-09-29 08:10:15 51°23.639 2°53.423 11.9 280 15.9 102100 45
2009-09-29 08:10:20 51°23.655 2°53.428 11.9 233 15.9 102100 45
2009-09-29 08:10:25 51°23.67 2°53.432 11.5 284 15.9 102090 45
2009-09-29 08:10:29 51°23.683 2°53.436 11.5 34 15.9 102090 45
2009-09-29 08:10:35 51°23.701 2°53.44 10.9 277 15.9 102080 43
2009-09-29 08:10:40 51°23.717 2°53.445 11.5 38 15.9 102080 43
2009-09-29 08:10:45 51°23.732 2°53.448 11.3 281 15.9 102090 44
2009-09-29 08:10:49 51°23.745 2°53.452 10.9 233 15.9 102090 44
2009-09-29 08:10:54 51°23.76 2°53.456 11.6 284 15.9 102080 42
2009-09-29 08:11:00 51°23.779 2°53.461 9.8 37 15.9 102080 42
2009-09-29 08:11:05 51°23.794 2°53.465 11.1 24 15.9 102080 45
2009-09-29 08:11:09 51°23.807 2°53.469 11.5 38 15.9 102080 45
2009-09-29 08:11:15 51°23.826 2°53.473 10.4 280 15.8 102080 45
2009-09-29 08:11:20 51°23.841 2°53.477 10.2 38 15.8 102080 45
2009-09-29 08:11:25 51°23.857 2°53.481 11.1 280 15.8 102090 42
2009-09-29 08:11:30 51°23.873 2°53.485 11.3 35 15.8 102090 42
2009-09-29 08:11:34 51°23.886 2°53.488 9.8 283 15.9 102090 42
2009-09-29 08:11:40 51°23.904 2°53.492 11 33 15.9 102090 42
2009-09-29 08:11:45 51°23.92 2°53.496 11.3 277 15.8 102100 44
2009-09-29 08:11:50 51°23.935 2°53.501 10.5 233 15.8 102100 44
2009-09-29 08:11:54 51°23.948 2°53.503 11.2 278 15.9 102090 45
2009-09-29 08:12:00 51°23.966 2°53.508 12 34 15.9 102090 45
2009-09-29 08:12:04 51°23.979 2°53.51 12.2 26 15.9 102090 44
2009-09-29 08:12:09 51°23.994 2°53.514 11.8 34 15.9 102090 44
2009-09-29 08:12:15 51°24.012 2°53.519 13.1 276 15.9 102100 44
2009-09-29 08:12:20 51°24.027 2°53.524 12.6 35 15.9 102100 44
2009-09-29 08:12:25 51°24.042 2°53.527 11 280 15.9 102090 42
2009-09-29 08:12:30 51°24.057 2°53.532 11.4 37 15.9 102090 42
2009-09-29 08:12:36 51°24.073 2°53.536 11.3 278 15.9 102090 43
2009-09-29 08:12:40 51°24.085 2°53.541 9.8 35 15.9 102090 43
2009-09-29 08:12:45 51°24.099 2°53.544 10.1 280 15.9 102080 45
2009-09-29 08:12:50 51°24.114 2°53.548 11.5 37 15.9 102080 45
2009-09-29 08:12:55 51°24.129 2°53.551 10.5 280 15.9 102100 42
2009-09-29 08:13:00 51°24.144 2°53.555 11.3 32 15.9 102100 42
2009-09-29 08:13:05 51°24.159 2°53.558 11.2 23 15.9 102090 42
2009-09-29 08:13:09 51°24.171 2°53.561 10.6 39 15.9 102090 42
2009-09-29 08:13:14 51°24.186 2°53.564 10.4 278 15.9 102090 45
2009-09-29 08:13:20 51°24.204 2°53.569 12 34 15.9 102090 45
2009-09-29 08:13:25 51°24.22 2°53.573 12.2 282 15.9 102100 43
2009-09-29 08:13:29 51°24.232 2°53.575 11.2 32 15.9 102100 43
2009-09-29 08:13:34 51°24.247 2°53.579 12.4 284 15.9 102090 44
2009-09-29 08:13:40 51°24.266 2°53.583 11.2 34 15.9 102090 44
2009-09-29 08:13:45 51°24.281 2°53.587 11.9 286 15.9 102090 43
2009-09-29 08:13:50 51°24.296 2°53.591 11.1 35 15.9 102090 43
2009-09-29 08:13:55 51°24.311 2°53.596 10.5 285 15.9 102090 45
2009-09-29 08:14:00 51°24.326 2°53.598 9.9 38 15.9 102090 45
2009-09-29 08:14:05 51°24.341 2°53.603 10.4 26 15.9 102080 42
2009-09-29 08:14:10 51°24.356 2°53.606 13.8 34 15.9 102080 42
2009-09-29 08:14:14 51°24.368 2°53.61 11.5 282 15.9 102090 43
2009-09-29 08:14:20 51°24.386 2°53.614 12.8 34 15.9 102090 43
2009-09-29 08:14:25 51°24.401 2°53.618 11.3 281 15.9 102090 44
2009-09-29 08:14:30 51°24.416 2°53.622 13.1 34 15.9 102090 44
2009-09-29 08:14:35 51°24.431 2°53.626 11.3 278 15.9 102090 42
2009-09-29 08:14:40 51°24.447 2°53.629 11.3 33 15.9 102090 42
2009-09-29 08:14:44 51°24.459 2°53.632 11.8 283 15.9 102090 42
2009-09-29 08:14:49 51°24.474 2°53.636 10.7 37 15.9 102090 42
2009-09-29 08:14:55 51°24.493 2°53.64 11.1 283 15.8 102100 44
2009-09-29 08:15:00 51°24.508 2°53.644 11.3 32 15.8 102100 44
2009-09-29 08:15:05 51°24.523 2°53.648 10.7 23 15.8 102080 45
2009-09-29 08:15:09 51°24.535 2°53.651 12.3 30 15.8 102080 45
2009-09-29 08:15:15 51°24.554 2°53.655 9.7 285 15.8 102090 45
2009-09-29 08:15:20 51°24.569 2°53.659 10.5 34 15.8 102090 45
2009-09-29 08:15:25 51°24.584 2°53.663 12.3 279 15.8 102080 42
2009-09-29 08:15:29 51°24.596 2°53.667 13.1 33 15.8 102080 42
2009-09-29 08:15:34 51°24.611 2°53.67 11.9 278 15.9 102080 44
2009-09-29 08:15:40 51°24.629 2°53.676 11.6 234 15.9 102080 44
2009-09-29 08:15:45 51°24.644 2°53.679 11.3 280 15.8 102100 42
2009-09-29 08:15:49 51°24.656 2°53.682 11.7 234 15.8 102100 42
2009-09-29 08:15:54 51°24.671 2°53.686 10.7 282 15.8 102080 45
2009-09-29 08:16:00 51°24.69 2°53.69 10.5 235 15.8 102080 45
2009-09-29 08:16:05 51°24.705 2°53.694 11.7 25 15.8 102100 43
2009-09-29 08:16:09 51°24.717 2°53.697 11 235 15.8 102100 43
2009-09-29 08:16:15 51°24.735 2°53.702 10.5 284 15.9 102080 43
2009-09-29 08:16:20 51°24.75 2°53.705 11.1 31 15.9 102080 43
2009-09-29 08:16:24 51°24.763 2°53.708 11.1 280 15.9 102080 45
2009-09-29 08:16:30 51°24.781 2°53.711 10.3 235 15.9 102080 45
2009-09-29 08:16:35 51°24.797 2°53.715 10.4 284 15.9 102090 44
2009-09-29 08:16:40 51°24.812 2°53.719 10 31 15.9 102090 44
2009-09-29 08:16:45 51°24.827 2°53.723 12.1 286 15.9 102090 43
2009-09-29 08:16:50 51°24.842 2°53.726 10.1 34 15.9 102090 43
2009-09-29 08:16:54 51°24.855 2°53.729 11.1 281 15.9 102100 46
2009-09-29 08:17:00 51°24.873 2°53.733 10.5 235 15.9 102100 46
2009-09-29 08:17:05 51°24.888 2°53.737 11.8 22 15.9 102090 45
2009-09-29 08:17:09 51°24.9 2°53.74 10.5 235 15.9 102090 45
2009-09-29 08:17:15 51°24.919 2°53.745 9.9 283 15.9 102090 42
2009-09-29 08:17:20 51°24.934 2°53.749 10.5 37 15.9 102090 42
2009-09-29 08:17:25 51°24.949 2°53.753 11.5 279 15.9 102090 44
2009-09-29 08:17:29 51°24.961 2°53.756 10.5 234 15.9 102090 44
2009-09-29 08:17:34 51°24.976 2°53.761 11.4 280 15.9 102090 42
2009-09-29 08:17:40 51°24.995 2°53.765 10.9 38 15.9 102090 42
2009-09-29 08:17:45 51°25.01 2°53.77 11 285 15.9 102100 45
2009-09-29 08:17:50 51°25.026 2°53.774 9.8 234 15.9 102100 45
2009-09-29 08:17:54 51°25.038 2°53.777 12 277 15.9 102100 43
2009-09-29 08:18:00 51°25.056 2°53.783 13.2 34 15.9 102100 43
2009-09-29 08:18:05 51°25.071 2°53.786 11.8 21 15.9 102090 43
2009-09-29 08:18:09 51°25.083 2°53.79 10.8 37 15.9 102090 43
2009-09-29 08:18:14 51°25.097 2°53.794 11.6 283 15.9 102080 44
2009-09-29 08:18:20 51°25.115 2°53.799 10.7 31 15.9 102080 44
2009-09-29 08:18:25 51°25.13 2°53.803 12.1 276 15.9 102080 44
2009-09-29 08:18:30 51°25.145 2°53.806 11.5 37 15.9 102080 44
2009-09-29 08:18:35 51°25.16 2°53.81 11.7 277 15.9 102110 43
2009-09-29 08:18:40 51°25.175 2°53.813 12 35 15.9 102110 43
2009-09-29 08:18:45 51°25.19 2°53.817 12.1 285 15.8 102080 44
2009-09-29 08:18:50 51°25.205 2°53.82 12.3 32 15.8 102080 44
2009-09-29 08:18:55 51°25.22 2°53.823 10.1 281 15.8 102080 44
2009-09-29 08:19:00 51°25.235 2°53.827 11.3 34 15.8 102080 44
2009-09-29 08:19:05 51°25.25 2°53.83 10.5 25 15.9 102080 45
2009-09-29 08:19:10 51°25.265 2°53.834 11.1 232 15.9 102080 45
2009-09-29 08:19:15 51°25.28 2°53.838 12.4 282 15.8 102090 44
2009-09-29 08:19:20 51°25.296 2°53.841 11.5 37 15.8 102090 44
2009-09-29 08:19:25 51°25.311 2°53.845 11.3 281 15.9 102090 42
2009-09-29 08:19:30 51°25.325 2°53.849 12.6 36 15.9 102090 42
2009-09-29 08:19:36 51°25.342 2°53.853 12.1 284 15.9 102090 44
2009-09-29 08:19:41 51°25.356 2°53.856 11.4 34 15.9 102090 44
2009-09-29 08:19:46 51°25.371 2°53.861 11.7 281 15.9 102090 45
2009-09-29 08:19:51 51°25.386 2°53.864 11.9 234 15.9 102090 45
2009-09-29 08:19:56 51°25.401 2°53.869 10.8 23 15.8 102100 42
2009-09-29 08:20:01 51°25.416 2°53.873 11.5 35 15.8 102100 42
2009-09-29 08:20:05 51°25.427 2°53.876 11.6 22 15.8 102090 44
2009-09-29 08:20:10 51°25.442 2°53.879 11.9 233 15.8 102090 44
2009-09-29 08:20:15 51°25.457 2°53.882 9.4 278 15.8 102090 42
2009-09-29 08:20:20 51°25.471 2°53.886 10.9 35 15.8 102090 42
2009-09-29 08:20:25 51°25.486 2°53.89 10.6 279 15.8 102090 42
2009-09-29 08:20:30 51°25.5 2°53.894 10.8 38 15.8 102090 42
2009-09-29 08:20:34 51°25.512 2°53.897 10 282 15.8 102070 42
2009-09-29 08:20:40 51°25.529 2°53.902 11.9 35 15.8 102070 42
2009-09-29 08:20:45 51°25.544 2°53.906 12.1 287 15.9 102090 44
2009-09-29 08:20:49 51°25.556 2°53.909 11.7 34 15.9 102090 44
2009-09-29 08:20:55 51°25.574 2°53.913 11.6 278 15.9 102100 42
2009-09-29 08:21:00 51°25.589 2°53.918 10.8 34 15.9 102100 42
2009-09-29 08:21:05 51°25.604 2°53.921 11.3 25 15.8 102090 42
2009-09-29 08:21:10 51°25.619 2°53.924 12.1 233 15.8 102090 42
2009-09-29 08:21:15 51°25.634 2°53.927 11.9 277 15.8 102090 45
2009-09-29 08:21:20 51°25.649 2°53.929 11 34 15.8 102090 45
2009-09-29 08:21:25 51°25.664 2°53.931 10.5 282 15.8 102080 45
2009-09-29 08:21:29 51°25.676 2°53.933 9.8 34 15.8 102080 45
2009-09-29 08:21:34 51°25.691 2°53.935 13 283 15.8 102090 44
2009-09-29 08:21:40 51°25.708 2°53.937 10.8 35 15.8 102090 44
2009-09-29 08:21:45 51°25.723 2°53.939 10.1 281 15.8 102080 42
2009-09-29 08:21:49 51°25.734 2°53.941 10.4 233 15.8 102080 42
2009-09-29 08:21:55 51°25.752 2°53.943 11.8 279 15.8 102090 43
2009-09-29 08:22:00 51°25.767 2°53.945 12.6 37 15.8 102090 43
2009-09-29 08:22:05 51°25.782 2°53.946 13.2 27 15.8 102070 45
2009-09-29 08:22:09 51°25.794 2°53.948 10.5 39 15.8 102070 45
2009-09-29 08:22:15 51°25.812 2°53.949 12.5 282 15.8 102090 45
2009-09-29 08:22:20 51°25.827 2°53.952 12.1 34 15.8 102090 45
2009-09-29 08:22:25 51°25.842 2°53.953 12.9 286 15.9 102070 45
2009-09-29 08:22:29 51°25.854 2°53.954 11.9 35 15.9 102070 45
2009-09-29 08:22:34 51°25.869 2°53.955 11.7 282 15.9 102070 43
2009-09-29 08:22:40 51°25.887 2°53.956 12.7 34 15.9 102070 43
2009-09-29 08:22:45 51°25.902 2°53.957 11 279 15.9 102100 42
2009-09-29 08:22:49 51°25.914 2°53.958 12.3 35 15.9 102100 42
2009-09-29 08:22:55 51°25.932 2°53.959 11.4 277 15.9 102070 44
2009-09-29 08:23:00 51°25.947 2°53.96 12.4 37 15.9 102070 44
2009-09-29 08:23:05 51°25.962 2°53.961 11.3 23 15.8 102080 43
2009-09-29 08:23:10 51°25.978 2°53.963 12.1 33 15.8 102080 43
2009-09-29 08:23:14 51°25.99 2°53.964 12.5 278 15.8 102090 43
2009-09-29 08:23:20 51°26.008 2°53.966 12.4 35 15.8 102090 43
2009-09-29 08:23:25 51°26.024 2°53.967 10.4 283 15.8 102080 43
2009-09-29 08:23:30 51°26.039 2°53.969 9.9 34 15.8 102080 43
2009-09-29 08:23:35 51°26.054 2°53.969 10.9 280 15.8 102080 43
2009-09-29 08:23:40 51°26.07 2°53.97 11 39 15.8 102080 43
2009-09-29 08:23:44 51°26.082 2°53.972 11.5 286 15.8 102080 42
2009-09-29 08:23:50 51°26.1 2°53.974 10.6 37 15.8 102080 42
2009-09-29 08:23:55 51°26.116 2°53.974 11.7 286 15.8 102090 42
2009-09-29 08:24:00 51°26.131 2°53.977 11.7 33 15.8 102090 42
2009-09-29 08:24:05 51°26.147 2°53.978 11.8 26 15.8 102080 44
2009-09-29 08:24:09 51°26.159 2°53.98 11.5 38 15.8 102080 44
2009-09-29 08:24:15 51°26.178 2°53.982 11.8 281 15.8 102090 41
2009-09-29 08:24:20 51°26.194 2°53.983 12.3 36 15.8 102090 41
2009-09-29 08:24:25 51°26.209 2°53.985 11.1 285 15.8 102080 44
2009-09-29 08:24:29 51°26.222 2°53.985 11.8 35 15.8 102080 44
2009-09-29 08:24:34 51°26.237 2°53.987 11.3 280 15.8 102080 44
2009-09-29 08:24:40 51°26.255 2°53.988 11.3 37 15.8 102080 44
2009-09-29 08:24:45 51°26.271 2°53.99 11.4 280 15.8 102080 45
2009-09-29 08:24:49 51°26.283 2°53.99 11.2 41 15.8 102080 45